When you browse on this site, cookies collect data to enhance your experience and personalize the content and advertising you see.
Visit our Privacy Policy to learn more. By continuing to use the site, you agree to this use of cookies and data.
  • în România
  • Lista ţărilor
  • Pe 7 zile
  • Temperatura apei
  • Meteo pe hartă
  • Widget-uri
  • user-avatar
    Intrare

    Meteo pe oră la Ozorków

    Astăzi, 20 Septembrie, Vineri

    Timp Temperatura Precipitaţii Vânt Presiune Umiditate
    00:00 +7°C° 0 mm 3 m/s 757 mmHg 82%
    01:00 +5°C° 0 mm 3 m/s 757 mmHg 84%
    02:00 +5°C° 0 mm 3 m/s 757 mmHg 85%
    03:00 +5°C° 0 mm 3 m/s 757 mmHg 86%
    04:00 +5°C° 0 mm 3 m/s 757 mmHg 87%
    05:00 +7°C° 0 mm 3 m/s 757 mmHg 85%
    06:00 +7°C° 0 mm 3 m/s 757 mmHg 83%
    07:00 +7°C° 0 mm 4 m/s 757 mmHg 81%
    08:00 +8°C° 0 mm 4 m/s 757 mmHg 73%
    09:00 +11°C° 0 mm 4 m/s 757 mmHg 64%
    10:00 +12°C° 0 mm 4 m/s 758 mmHg 55%
    11:00 +13°C° 0 mm 4 m/s 757 mmHg 51%
    12:00 +14°C° 0 mm 5 m/s 757 mmHg 48%
    13:00 +14°C° 0 mm 5 m/s 757 mmHg 44%
    14:00 +14°C° 0 mm 4 m/s 757 mmHg 46%
    15:00 +14°C° 0 mm 4 m/s 756 mmHg 47%
    16:00 +14°C° 0 mm 4 m/s 756 mmHg 49%
    17:00 +13°C° 0 mm 3 m/s 756 mmHg 52%
    18:00 +13°C° 0 mm 3 m/s 756 mmHg 54%
    19:00 +13°C° 0 mm 2 m/s 756 mmHg 57%
    20:00 +12°C° 0 mm 3 m/s 756 mmHg 61%
    21:00 +11°C° 0 mm 3 m/s 756 mmHg 64%
    22:00 +11°C° 0 mm 4 m/s 756 mmHg 68%
    23:00 +11°C° 0 mm 4 m/s 756 mmHg 71%

    Mâine, 21 Septembrie, Sâmbătă

    Timp Temperatura Precipitaţii Vânt Presiune Umiditate
    00:00 +10°C° 0 mm 4 m/s 756 mmHg 74%
    01:00 +10°C° 0 mm 4 m/s 756 mmHg 77%
    02:00 +8°C° 0 mm 4 m/s 756 mmHg 79%
    03:00 +8°C° 0 mm 4 m/s 756 mmHg 81%
    04:00 +8°C° 0 mm 4 m/s 755 mmHg 83%
    05:00 +8°C° 0 mm 4 m/s 755 mmHg 82%
    06:00 +10°C° 0 mm 4 m/s 755 mmHg 81%
    07:00 +9°C° 0 mm 5 m/s 755 mmHg 81%
    08:00 +12°C° 0 mm 5 m/s 755 mmHg 76%
    09:00 +13°C° 0 mm 5 m/s 755 mmHg 72%
    10:00 +15°C° 0 mm 5 m/s 755 mmHg 67%
    11:00 +16°C° 0 mm 5 m/s 755 mmHg 65%
    12:00 +17°C° 0 mm 5 m/s 755 mmHg 62%
    13:00 +19°C° 0 mm 5 m/s 755 mmHg 60%
    14:00 +19°C° 0 mm 5 m/s 755 mmHg 60%
    15:00 +19°C° 0 mm 5 m/s 754 mmHg 60%
    16:00 +19°C° 0 mm 4 m/s 754 mmHg 60%
    17:00 +17°C° 0 mm 3 m/s 754 mmHg 66%
    18:00 +16°C° 0 mm 2 m/s 754 mmHg 72%
    19:00 +14°C° 0 mm 1 m/s 754 mmHg 78%
    20:00 +14°C° 0 mm 1 m/s 754 mmHg 80%
    21:00 +13°C° 0 mm 1 m/s 754 mmHg 82%
    22:00 +13°C° 0 mm 1 m/s 754 mmHg 83%
    23:00 +12°C° 0 mm 1 m/s 754 mmHg 83%

    Poimâine, 22 Septembrie, Duminică

    Timp Temperatura Precipitaţii Vânt Presiune Umiditate
    00:00 +12°C° 0 mm 2 m/s 754 mmHg 83%
    01:00 +12°C° 0 mm 2 m/s 754 mmHg 83%
    02:00 +12°C° 0 mm 2 m/s 754 mmHg 83%
    03:00 +12°C° 0 mm 2 m/s 753 mmHg 82%
    04:00 +10°C° 0 mm 2 m/s 753 mmHg 82%
    05:00 +12°C° 0 mm 2 m/s 753 mmHg 79%
    06:00 +12°C° 0 mm 2 m/s 753 mmHg 76%
    07:00 +13°C° 0 mm 2 m/s 753 mmHg 73%
    08:00 +15°C° 0 mm 2 m/s 753 mmHg 65%
    09:00 +17°C° 0 mm 2 m/s 753 mmHg 56%
    10:00 +19°C° 0 mm 2 m/s 753 mmHg 47%
    11:00 +20°C° 0 mm 2 m/s 752 mmHg 43%
    12:00 +21°C° 0 mm 2 m/s 752 mmHg 39%
    13:00 +23°C° 0 mm 2 m/s 752 mmHg 35%
    14:00 +23°C° 0 mm 2 m/s 751 mmHg 37%
    15:00 +23°C° 0 mm 1 m/s 751 mmHg 39%
    16:00 +23°C° 0 mm 1 m/s 750 mmHg 40%
    17:00 +21°C° 0 mm 1 m/s 750 mmHg 44%
    18:00 +18°C° 0 mm 2 m/s 750 mmHg 48%
    19:00 +16°C° 0 mm 2 m/s 750 mmHg 51%
    20:00 +16°C° 0 mm 2 m/s 750 mmHg 54%
    21:00 +15°C° 0 mm 2 m/s 750 mmHg 58%
    22:00 +15°C° 0 mm 2 m/s 750 mmHg 61%
    23:00 +14°C° 0 mm 2 m/s 749 mmHg 63%

    23 Septembrie, Luni

    Timp Temperatura Precipitaţii Vânt Presiune Umiditate
    00:00 +14°C° 0 mm 2 m/s 749 mmHg 66%
    01:00 +12°C° 0 mm 3 m/s 749 mmHg 68%
    02:00 +12°C° 0 mm 3 m/s 748 mmHg 69%
    03:00 +12°C° 0 mm 3 m/s 748 mmHg 69%
    04:00 +11°C° 0 mm 3 m/s 747 mmHg 70%
    05:00 +11°C° 0 mm 3 m/s 747 mmHg 67%
    06:00 +11°C° 0 mm 4 m/s 747 mmHg 65%
    07:00 +12°C° 0 mm 4 m/s 746 mmHg 62%
    08:00 +13°C° 0 mm 4 m/s 746 mmHg 59%
    09:00 +15°C° 0 mm 4 m/s 746 mmHg 55%
    10:00 +17°C° 0 mm 4 m/s 746 mmHg 52%
    11:00 +18°C° 0 mm 4 m/s 746 mmHg 51%
    12:00 +18°C° 0 mm 4 m/s 746 mmHg 51%
    13:00 +19°C° 0 mm 4 m/s 745 mmHg 50%
    14:00 +18°C° 0 mm 3 m/s 745 mmHg 54%
    15:00 +17°C° 0 mm 3 m/s 745 mmHg 58%
    16:00 +16°C° 0 mm 3 m/s 745 mmHg 63%
    17:00 +14°C° 0 mm 3 m/s 745 mmHg 69%
    18:00 +13°C° 0 mm 3 m/s 745 mmHg 75%
    19:00 +14°C° 0 mm 2 m/s 745 mmHg 82%
    20:00 +13°C° 0 mm 2 m/s 745 mmHg 84%
    21:00 +13°C° 0 mm 2 m/s 745 mmHg 85%
    22:00 +13°C° 0 mm 2 m/s 745 mmHg 87%
    23:00 +13°C° 0 mm 2 m/s 746 mmHg 89%

    24 Septembrie, Marţi

    Timp Temperatura Precipitaţii Vânt Presiune Umiditate
    00:00 +12°C° 0 mm 2 m/s 746 mmHg 91%
    01:00 +12°C° 0 mm 2 m/s 746 mmHg 93%
    02:00 +12°C° 0 mm 2 m/s 746 mmHg 94%
    03:00 +10°C° 0 mm 2 m/s 746 mmHg 95%
    04:00 +10°C° 0 mm 2 m/s 746 mmHg 96%
    05:00 +10°C° 0 mm 2 m/s 747 mmHg 94%
    06:00 +12°C° 0 mm 2 m/s 747 mmHg 92%
    07:00 +12°C° 0 mm 2 m/s 747 mmHg 90%
    08:00 +14°C° 0 mm 2 m/s 747 mmHg 82%
    09:00 +16°C° 0 mm 3 m/s 748 mmHg 75%
    10:00 +18°C° 0 mm 3 m/s 748 mmHg 67%
    11:00 +19°C° 0 mm 3 m/s 748 mmHg 62%
    12:00 +20°C° 0 mm 3 m/s 748 mmHg 58%
    13:00 +21°C° 0 mm 2 m/s 748 mmHg 54%
    14:00 +21°C° 0 mm 2 m/s 748 mmHg 54%
    15:00 +21°C° 0 mm 2 m/s 748 mmHg 54%
    16:00 +22°C° 0 mm 1 m/s 748 mmHg 55%
    17:00 +20°C° 0 mm 1 m/s 748 mmHg 58%
    18:00 +19°C° 0 mm 1 m/s 748 mmHg 62%
    19:00 +18°C° 0 mm 1 m/s 748 mmHg 66%
    20:00 +17°C° 0 mm 2 m/s 748 mmHg 67%
    21:00 +17°C° 0 mm 2 m/s 748 mmHg 69%
    22:00 +16°C° 0 mm 2 m/s 748 mmHg 70%
    23:00 +16°C° 0 mm 2 m/s 748 mmHg 71%

    25 Septembrie, Miercuri

    Timp Temperatura Precipitaţii Vânt Presiune Umiditate
    00:00 +16°C° 0 mm 2 m/s 748 mmHg 72%
    01:00 +15°C° 0 mm 2 m/s 748 mmHg 73%
    02:00 +15°C° 0 mm 2 m/s 748 mmHg 75%
    03:00 +15°C° 0 mm 2 m/s 747 mmHg 77%
    04:00 +15°C° 0 mm 2 m/s 747 mmHg 78%
    05:00 +15°C° 0 mm 2 m/s 747 mmHg 79%
    06:00 +15°C° 0 mm 2 m/s 747 mmHg 80%
    07:00 +14°C° 0 mm 3 m/s 747 mmHg 80%
    08:00 +14°C° 0 mm 3 m/s 747 mmHg 79%
    09:00 +16°C° 0 mm 3 m/s 746 mmHg 78%
    10:00 +17°C° 0 mm 3 m/s 746 mmHg 76%
    11:00 +18°C° 0.1 mm 3 m/s 746 mmHg 72%
    12:00 +18°C° 0.1 mm 3 m/s 746 mmHg 68%
    13:00 +19°C° 0.1 mm 3 m/s 745 mmHg 64%
    14:00 +20°C° 0 mm 2 m/s 745 mmHg 63%
    15:00 +20°C° 0 mm 2 m/s 744 mmHg 61%
    16:00 +20°C° 0 mm 2 m/s 744 mmHg 59%
    17:00 +19°C° 0 mm 2 m/s 744 mmHg 62%
    18:00 +19°C° 0 mm 2 m/s 744 mmHg 65%
    19:00 +18°C° 0 mm 2 m/s 744 mmHg 68%
    20:00 +17°C° 0 mm 2 m/s 744 mmHg 69%
    21:00 +17°C° 0 mm 2 m/s 744 mmHg 70%
    22:00 +17°C° 0 mm 3 m/s 744 mmHg 71%
    23:00 +16°C° 0 mm 3 m/s 743 mmHg 75%
    Arată mai mult